DW3478 Weather Reports


time (UTC)temp
C
wind
direction
speed
KPH
gust
KPH
rain 1hr
cm
rain 24hr
cm
rain mn
cm
humidity
%
barometer
mb
20260505034305 15 329 0.0 0.0 0.00 0.00 0.00 94 1012.2
20260505033805 15 329 0.0 0.0 0.00 0.00 0.00 94 1012.2
20260505031805 15 329 0.0 1.6 0.00 0.00 0.00 94 1012.1
20260505031305 15 329 0.0 0.0 0.00 0.00 0.00 94 1012.1
20260505030805 15 329 0.0 1.6 0.00 0.00 0.00 93 1012.0
20260505030304 15 329 1.6 1.6 0.00 0.00 0.00 93 1012.1
20260505025805 15 329 1.6 3.2 0.00 0.00 0.00 93 1012.0
20260505025305 15 329 1.6 1.6 0.00 0.00 0.00 93 1012.0
20260505024805 15 327 1.6 1.6 0.00 0.00 0.00 93 1012.0
20260505023806 16 340 0.0 0.0 0.00 0.00 0.00 93 1012.2
20260505023304 16 340 1.6 1.6 0.00 0.00 0.00 93 1012.2
20260505022804 16 340 0.0 1.6 0.00 0.00 0.00 93 1012.3
20260505022305 16 340 1.6 1.6 0.00 0.00 0.00 93 1012.3
20260505021304 16 340 0.0 1.6 0.00 0.00 0.00 93 1012.5
20260505020305 16 340 0.0 0.0 0.00 0.00 0.00 93 1012.6
20260505015806 16 342 0.0 0.0 0.00 0.00 0.00 93 1012.7
20260505014305 16 355 0.0 0.0 0.00 0.00 0.00 93 1012.9
20260505013304 16 16 0.0 0.0 0.00 0.00 0.00 93 1012.9
20260505012805 16 19 0.0 0.0 0.00 0.00 0.00 93 1013.2
20260505012305 16 19 0.0 0.0 0.00 0.00 0.00 93 1013.1
20260505011805 16 19 0.0 0.0 0.00 0.00 0.00 93 1013.3
20260505010305 16 19 1.6 3.2 0.00 0.00 0.00 93 1013.3
20260505005804 16 329 1.6 3.2 0.00 0.00 0.00 93 1013.3
20260505004805 16 329 1.6 3.2 0.00 0.00 0.00 93 1013.5
20260505004305 16 329 0.0 1.6 0.00 0.00 0.00 93 1013.5
20260505003806 16 329 1.6 1.6 0.00 0.00 0.00 93 1013.5
20260505001805 16 329 1.6 3.2 0.00 0.00 0.00 93 1013.6
20260505001305 16 349 0.0 1.6 0.00 0.00 0.00 93 1013.4
20260505000305 16 0 0.0 1.6 0.00 0.00 0.00 93 1013.7
20260504235305 16 30 1.6 4.8 0.00 0.00 0.00 92 1013.6
20260504234805 16 48 1.6 4.8 0.00 0.00 0.00 93 1013.7
20260504233305 16 0 1.6 3.2 0.00 0.00 0.00 92 1013.5
20260504232305 16 0 0.0 1.6 0.00 0.00 0.00 92 1013.5
20260504231805 16 0 0.0 1.6 0.00 0.00 0.00 92 1013.7
20260504225804 16 36 0.0 1.6 0.00 0.00 0.00 92 1013.7
20260504225306 16 36 0.0 1.6 0.00 0.00 0.00 92 1013.7
20260504224805 16 36 1.6 1.6 0.00 0.00 0.00 92 1013.5
20260504224304 16 36 0.0 1.6 0.00 0.00 0.00 91 1013.6
20260504223805 16 36 0.0 0.0 0.00 0.00 0.00 91 1013.7
20260504223305 16 36 0.0 3.2 0.00 0.00 0.00 91 1013.8
20260504222805 16 36 1.6 3.2 0.00 0.00 0.00 91 1013.4
20260504222305 16 267 0.0 3.2 0.00 0.00 0.00 91 1013.5
20260504221305 16 267 0.0 1.6 0.00 0.00 0.00 91 1013.6
20260504215305 16 267 0.0 1.6 0.00 0.00 0.00 91 1013.7
20260504213304 17 267 0.0 1.6 0.00 0.00 0.00 91 1013.4
20260504212805 17 267 0.0 1.6 0.00 0.00 0.00 91 1013.4
20260504211304 17 267 0.0 0.0 0.00 0.00 0.00 90 1013.3
20260504210804 17 267 0.0 0.0 0.00 0.00 0.00 90 1013.4
20260504210304 17 267 0.0 0.0 0.00 0.00 0.00 90 1013.3
20260504205804 17 267 0.0 1.6 0.00 0.00 0.00 90 1013.3
20260504205304 17 267 0.0 1.6 0.00 0.00 0.00 90 1013.1
20260504204805 17 267 0.0 1.6 0.00 0.00 0.00 90 1013.0
20260504203805 17 267 0.0 0.0 0.00 0.00 0.00 90 1013.1
20260504200805 17 316 0.0 3.2 0.00 0.00 0.00 89 1012.8
20260504200304 17 273 0.0 1.6 0.00 0.00 0.00 89 1012.5
20260504194804 17 273 0.0 0.0 0.00 0.00 0.00 90 1012.4
20260504194305 17 273 0.0 0.0 0.00 0.00 0.00 89 1012.5
20260504193304 17 273 0.0 1.6 0.00 0.00 0.00 90 1012.4
20260504192805 17 273 0.0 1.6 0.00 0.00 0.00 89 1012.8
20260504190304 20 0 0.0 0.0 0.00 0.00 0.00 83 1012.4
20260504185805 20 0 0.0 0.0 0.00 0.00 0.00 83 1012.7
20260504185305 20 0 0.0 0.0 0.00 0.00 0.00 83 1012.8
20260504184804 20 0 0.0 0.0 0.00 0.00 0.00 83 1012.8
20260504182304 20 0 0.0 0.0 0.00 0.00 0.00 83 1012.9
20260504181804 20 0 0.0 0.0 0.00 0.00 0.00 83 1012.6
20260504181305 20 0 0.0 0.0 0.00 0.00 0.00 83 1012.5
20260504180805 20 0 0.0 0.0 0.00 0.00 0.00 83 1012.7
20260504180304 20 0 0.0 0.0 0.00 0.00 0.00 83 1012.5
20260504175805 20 0 0.0 0.0 0.00 0.00 0.00 83 1012.8
20260504175305 20 0 0.0 0.0 0.00 0.00 0.00 83 1012.7
20260504174304 20 0 0.0 0.0 0.00 0.00 0.00 83 1012.6
20260504173805 20 0 0.0 0.0 0.00 0.00 0.00 83 1012.6
20260504173305 20 0 0.0 0.0 0.00 0.00 0.00 83 1012.7
20260504172804 20 0 0.0 0.0 0.00 0.00 0.00 83 1012.7
20260504172305 20 0 0.0 0.0 0.00 0.00 0.00 83 1012.8
20260504160304 20 0 0.0 0.0 0.00 0.00 0.00 83 1012.9
20260504141305 21 115 8.0 16.1 0.00 0.00 0.00 86 1013.2
20260504140806 20 124 6.4 12.9 0.00 0.00 0.00 87 1013.2
20260504140305 20 121 8.0 16.1 0.00 0.00 0.00 85 1013.1
20260504130806 18 124 3.2 4.8 0.00 0.00 0.00 92 1013.1
20260504130305 17 131 3.2 8.0 0.00 0.00 0.00 91 1013.2
20260504120305 18 0 0.0 0.0 0.00 0.00 0.00 93 1013.0
20260504110305 18 0 0.0 0.0 0.00 0.00 0.00 93 1013.4
20260504100305 18 163 3.2 11.3 0.00 0.00 0.00 90 1013.1
20260504081805 16 105 3.2 4.8 0.00 0.03 0.00 96 1012.6
20260504070305 16 36 1.6 4.8 0.00 0.03 0.00 96 1012.3
20260504050305 16 51 4.8 8.0 0.00 0.03 0.00 96 1012.2
20260504045805 16 43 3.2 4.8 0.00 0.03 0.00 96 1012.2
20260504044304 16 85 0.0 0.0 0.00 0.03 0.00 96 1012.0
20260504043805 16 5 0.0 0.0 0.00 0.03 0.00 96 1012.0
20260504043305 16 5 0.0 0.0 0.00 0.03 0.00 96 1012.2
20260504041805 16 5 0.0 0.0 0.00 0.03 0.00 96 1012.1
20260504041305 16 5 0.0 0.0 0.00 0.03 0.00 96 1012.2
20260504040805 16 5 0.0 0.0 0.00 0.03 0.00 96 1012.2
20260504040305 16 5 0.0 0.0 0.00 0.03 0.00 96 1012.2
20260504035305 16 5 0.0 0.0 0.00 0.03 0.00 96 1012.2